[[{"header":{"parameterUnit":"m.s-1","parameterCategory":1,"la1":30.2991,"la2":30.254,"lo1":-89.0895,"lo2":-89.0444,"dy":0.0017,"dx":0.0017,"nx":28,"ny":28,"refTime":"2024-10-22T03:00:00:Z","depth":0,"parameterNumber":2,"parameterNumberName":"U-component_of_WINDS"},"data":[0,0,0,0,0,0,0,0,0,0,0,0,0,0,0,0,0,0,0,0,0,0,0,0,0,0,0,0,0,0,0,0,0,0,0,0,0,0,0,0,0,0,0,0,0,0,0,0,0,0,0,0,0,0,0,0,0,0,-1.5867,-1.5868,0,-1.5935,-1.5936,-1.5937,-1.59,-1.5899,-1.5897,-1.5895,-1.5965,-1.5968,-1.5972,0,0,0,0,0,0,0,0,0,0,0,0,0,-1.5705,-1.5708,-1.5867,-1.5868,-1.5869,-1.5935,-1.5936,-1.5937,-1.5901,-1.5899,-1.5896,-1.5894,-1.5963,-1.5968,-1.5972,0,0,0,0,0,0,0,0,0,0,0,0,0,-1.5775,-1.5709,-1.5867,-1.5859,-1.5859,-1.5935,-1.5936,-1.5937,-1.5901,-1.5898,-1.5896,-1.5893,-1.5962,-1.5967,-1.5973,-1.6061,0,0,-1.5989,-1.5991,0,0,0,0,0,0,0,0,-1.5771,-1.5781,-1.5859,-1.586,-1.586,-1.5907,-1.5905,-1.5979,-1.5902,-1.5885,-1.5895,-1.5892,-1.5948,-1.5954,-1.5973,-1.6064,-1.6067,-1.5989,-1.5993,-1.5995,-1.5996,0,0,0,0,0,0,0,-1.5766,-1.5778,-1.5894,-1.586,-1.5861,-1.5852,-1.5858,-1.5918,-1.5931,-1.5886,-1.5884,-1.5892,-1.5947,-1.5968,-1.5974,-1.6068,-1.5989,-1.5994,-1.5997,-1.5999,-1.6236,-1.6238,0,0,0,0,0,0,-1.5762,-1.5774,-1.5892,-1.5896,-1.5808,-1.5857,-1.5864,-1.5894,-1.593,-1.5933,-1.5895,-1.5891,-1.596,-1.5968,-1.5976,-1.6083,-1.5995,-1.6,-1.6003,-1.6233,-1.6236,-1.624,0,0,0,0,0,0,-1.5758,-1.5773,-1.5889,-1.5834,-1.5849,-1.5862,-1.5896,-1.5897,-1.5918,-1.5937,-1.5939,-1.5914,-1.5958,-1.5969,-1.604,-1.6084,-1.6002,-1.6007,-1.6229,-1.6234,-1.6238,-1.6295,0,0,0,0,0,0,-1.5754,-1.5772,-1.5806,-1.5835,-1.5852,-1.5952,-1.5899,-1.59,-1.5927,-1.5922,-1.5955,-1.5957,-1.5957,-1.6032,-1.6046,-1.609,-1.6011,-1.6225,-1.6231,-1.6236,-1.629,-1.6301,-1.6311,0,0,0,0,0,-1.5748,-1.5819,-1.5807,-1.5822,-1.5894,-1.5955,-1.5964,-1.5962,-1.5931,-1.5965,-1.5977,-1.5956,-1.6077,-1.604,-1.6054,-1.6102,-1.6222,-1.6229,-1.6236,-1.6285,-1.6299,-1.6311,0,0,0,0,0,0,-1.5794,-1.5823,-1.581,-1.5893,-1.5922,-1.5949,-1.5992,-1.5977,-1.6015,-1.6009,-1.6005,-1.6012,-1.6087,-1.6101,-1.6059,-1.6189,-1.6145,-1.6155,-1.6177,-1.6191,-1.6202,-1.6197,-1.6016,0,0,0,0,0,-1.5813,-1.586,-1.5883,-1.5953,-1.5969,-1.5978,-1.6004,-1.6,-1.603,-1.6042,-1.6059,-1.6088,-1.6133,-1.6163,-1.6205,-1.6291,-1.6298,-1.6331,-1.6342,-1.635,-1.636,-1.6407,-1.6422,-1.6262,-1.6262,-1.6262,0,0,-1.5854,-1.5876,-1.5906,-1.5963,-1.5985,-1.6034,-1.5988,-1.6042,-1.6078,-1.605,-1.6118,-1.6132,-1.6165,-1.6244,-1.628,-1.6258,-1.6405,-1.6359,-1.6366,-1.637,-1.6415,-1.643,-1.6444,-1.6267,-1.6266,-1.6265,0,0,-1.5954,-1.5975,-1.6036,-1.6059,-1.6093,-1.6099,-1.6113,-1.6143,-1.6151,-1.622,-1.62,-1.6242,-1.6319,-1.6343,-1.6366,-1.6475,-1.6457,-1.6488,-1.6546,-1.6592,-1.6604,-1.6615,-1.6655,-1.6669,-1.6497,-1.6497,-1.6497,0,-1.6001,-1.6074,-1.607,-1.6125,-1.6151,-1.6127,-1.619,-1.6212,-1.6258,-1.6276,-1.6251,-1.6347,-1.6368,-1.6453,-1.6479,-1.6498,-1.6515,-1.6485,-1.6603,-1.6614,-1.6624,-1.6662,-1.6676,-1.6501,-1.65,-1.65,-1.65,0,-1.613,-1.6181,-1.6226,-1.6271,-1.6302,-1.636,-1.6365,-1.6397,-1.639,-1.6398,-1.6468,-1.6492,-1.6538,-1.6558,-1.6551,-1.6642,-1.6628,-1.6603,-1.6559,-1.6643,-1.6678,-1.6692,-1.6506,-1.6505,-1.6504,-1.6503,0,0,-1.6261,-1.6303,-1.632,-1.634,-1.6376,-1.6415,-1.6472,-1.6517,-1.6545,-1.6577,-1.6625,-1.6691,-1.6668,-1.6693,-1.6689,-1.673,-1.6815,-1.67,-1.6701,-1.6721,-1.6917,-1.6935,-1.6952,-1.6803,-1.6806,-1.6808,-1.6914,0,-1.6364,-1.6464,-1.6462,-1.6555,-1.6602,-1.658,-1.663,-1.6657,-1.6666,-1.6707,-1.6717,-1.6764,-1.673,-1.6745,-1.6784,-1.6796,-1.6854,-1.6789,-1.6848,-1.685,-1.6841,-1.697,-1.699,-1.7089,-1.6928,-1.693,-1.6932,0,-1.6497,-1.6534,-1.6632,-1.6661,-1.668,-1.6725,-1.6767,-1.6806,-1.6837,-1.684,-1.6869,-1.6858,-1.6916,-1.687,-1.695,-1.6905,-1.6929,-1.6939,-1.6942,-1.6948,-1.6897,-1.698,-1.7121,-1.7136,-1.6953,-1.6951,-1.695,0,-1.6583,-1.6658,-1.6726,-1.6744,-1.6779,-1.6811,-1.6827,-1.6854,-1.6882,-1.6918,-1.6936,-1.6979,-1.7002,-1.7035,-1.7037,-1.7003,-1.7117,-1.7071,-1.7122,-1.7122,-1.7148,-1.7146,-1.7295,-1.7163,-1.7162,-1.7162,-1.7162,0,-1.6699,-1.676,-1.6765,-1.6807,-1.6875,-1.6872,-1.6939,-1.6952,-1.6976,-1.702,-1.7004,-1.7046,-1.7044,-1.7087,-1.7088,-1.7154,-1.7165,-1.7169,-1.7169,-1.7171,-1.7171,-1.7187,-1.7181,-1.7166,-1.7165,-1.7164,-1.7164,0,-1.6807,-1.6813,-1.6886,-1.6914,-1.6922,-1.697,-1.6994,-1.7034,-1.7041,-1.7097,-1.711,-1.7121,-1.7171,-1.7175,-1.7232,-1.7232,-1.7313,-1.7305,-1.7303,-1.7301,-1.7353,-1.7348,-1.7517,-1.7539,-1.7393,-1.7394,-1.7395,0,-1.6881,-1.6927,-1.6959,-1.6988,-1.7006,-1.7052,-1.708,-1.7078,-1.7108,-1.7146,-1.7182,-1.7229,-1.7267,-1.7346,-1.736,-1.7403,-1.7396,-1.7452,-1.7403,-1.7403,-1.7398,-1.7395,-1.74,-1.7462,-1.7464,-1.7465,-1.7466,0,-1.7011,-1.7011,-1.7053,-1.7095,-1.7129,-1.7163,-1.7194,-1.7218,-1.722,-1.7255,-1.7305,-1.7334,-1.7392,-1.744,-1.7482,-1.7498,-1.7483,-1.7482,-1.7496,-1.7499,-1.7496,-1.7499,-1.733,-1.7478,-1.7477,-1.7476,-1.7475,-1.7475,-1.7104,-1.7144,-1.7173,-1.722,-1.7243,-1.7273,-1.7312,-1.7324,-1.7366,-1.7413,-1.741,-1.7465,-1.7494,-1.7549,-1.7569,-1.7612,-1.7593,-1.7613,-1.7619,-1.7624,-1.7629,-1.7489,-1.7619,-1.7619,-1.7619,-1.7619,-1.7618,0,-1.7234,-1.7251,-1.7294,-1.7338,-1.7375,-1.7357,-1.7391,-1.7423,-1.7472,-1.75,-1.7538,-1.7595,-1.7641,-1.7658,-1.7702,-1.7734,-1.7728,-1.7746,-1.7743,-1.7747,-1.7644,-1.7627,-1.775,-1.775,-1.7749,-1.7749,-1.7749,-1.7749,-1.7305,-1.7373,-1.7377,-1.7456,-1.7473,-1.7527,-1.7548,-1.7575,-1.7597,-1.7663,-1.7701,-1.7711,-1.7735,-1.7781,-1.7822,-1.7826,-1.7843,-1.7864,-1.7865,-1.7768,-1.7755,-1.7742,-1.7727,-1.7868,-1.7868,-1.7965,-1.7966,-1.7967]},{"header":{"parameterUnit":"m.s-1","parameterCategory":1,"la1":30.2991,"la2":30.254,"lo1":-89.0895,"lo2":-89.0444,"dy":0.0017,"dx":0.0017,"nx":28,"ny":28,"refTime":"2024-10-22T03:00:00:Z","depth":0,"parameterNumber":3,"parameterNumberName":"V-component_of_WINDS"},"data":[0,0,0,0,0,0,0,0,0,0,0,0,0,0,0,0,0,0,0,0,0,0,0,0,0,0,0,0,0,0,0,0,0,0,0,0,0,0,0,0,0,0,0,0,0,0,0,0,0,0,0,0,0,0,0,0,0,0,-2.8102,-2.8103,0,-2.814,-2.814,-2.8141,-2.8093,-2.8091,-2.8089,-2.8087,-2.8123,-2.8126,-2.8128,0,0,0,0,0,0,0,0,0,0,0,0,0,-2.7986,-2.7988,-2.8102,-2.8103,-2.8103,-2.814,-2.814,-2.8141,-2.8093,-2.8091,-2.8089,-2.8087,-2.8122,-2.8125,-2.8129,0,0,0,0,0,0,0,0,0,0,0,0,0,-2.8031,-2.7989,-2.8102,-2.8084,-2.8083,-2.814,-2.814,-2.8141,-2.8093,-2.8091,-2.8088,-2.8086,-2.8121,-2.8125,-2.8129,-2.8205,0,0,-2.8141,-2.8142,0,0,0,0,0,0,0,0,-2.8028,-2.8035,-2.8086,-2.8085,-2.8084,-2.8109,-2.8112,-2.8162,-2.8094,-2.8089,-2.8087,-2.8084,-2.812,-2.8124,-2.8137,-2.8207,-2.8208,-2.8141,-2.8143,-2.8145,-2.8146,0,0,0,0,0,0,0,-2.8025,-2.8033,-2.8117,-2.8087,-2.8085,-2.8072,-2.8076,-2.8122,-2.8119,-2.8089,-2.8086,-2.8091,-2.8119,-2.8133,-2.8137,-2.8209,-2.8141,-2.8144,-2.8147,-2.8148,-2.8342,-2.8345,0,0,0,0,0,0,-2.8025,-2.8031,-2.8116,-2.8118,-2.8049,-2.8077,-2.8081,-2.8103,-2.8118,-2.8118,-2.8093,-2.8089,-2.8128,-2.8133,-2.8138,-2.8229,-2.8145,-2.8149,-2.8151,-2.834,-2.8343,-2.8346,0,0,0,0,0,0,-2.8023,-2.8033,-2.8114,-2.8074,-2.8083,-2.8082,-2.8107,-2.8106,-2.812,-2.8121,-2.812,-2.8109,-2.8126,-2.8133,-2.8189,-2.8229,-2.815,-2.8154,-2.8336,-2.8341,-2.8345,-2.841,0,0,0,0,0,0,-2.8019,-2.8032,-2.8062,-2.8075,-2.8086,-2.8166,-2.811,-2.8108,-2.8127,-2.8121,-2.8135,-2.8135,-2.8125,-2.8184,-2.8193,-2.8233,-2.8157,-2.8333,-2.8338,-2.8343,-2.8404,-2.8416,-2.8426,0,0,0,0,0,-2.8015,-2.8078,-2.8064,-2.8074,-2.8123,-2.8168,-2.8174,-2.8161,-2.813,-2.816,-2.8161,-2.8135,-2.8223,-2.819,-2.82,-2.8242,-2.833,-2.8337,-2.8343,-2.8399,-2.8413,-2.8425,0,0,0,0,0,0,-2.807,-2.808,-2.8064,-2.8133,-2.815,-2.816,-2.8197,-2.8177,-2.8202,-2.8196,-2.8178,-2.8182,-2.8242,-2.8247,-2.821,-2.8316,-2.8271,-2.828,-2.8311,-2.8324,-2.8335,-2.8332,-2.816,0,0,0,0,0,-2.809,-2.8127,-2.8133,-2.8193,-2.8203,-2.8198,-2.8217,-2.8206,-2.8223,-2.823,-2.8235,-2.8251,-2.8282,-2.8303,-2.8332,-2.8404,-2.8406,-2.8438,-2.8449,-2.8458,-2.8465,-2.8503,-2.8518,-2.8367,-2.8367,-2.8367,0,0,-2.8132,-2.8142,-2.8166,-2.8204,-2.8216,-2.8254,-2.8205,-2.8246,-2.8274,-2.8235,-2.8289,-2.8293,-2.831,-2.8374,-2.8403,-2.8381,-2.8507,-2.8466,-2.8473,-2.8476,-2.8512,-2.8526,-2.8538,-2.8371,-2.8371,-2.837,0,0,-2.8227,-2.8239,-2.829,-2.8303,-2.8322,-2.8319,-2.8331,-2.8344,-2.8345,-2.8399,-2.8371,-2.8402,-2.8457,-2.847,-2.8484,-2.8584,-2.8561,-2.8593,-2.865,-2.8688,-2.8699,-2.871,-2.8745,-2.8758,-2.8601,-2.8601,-2.8601,0,-2.8276,-2.8333,-2.8319,-2.8363,-2.838,-2.8348,-2.84,-2.8412,-2.844,-2.8452,-2.8427,-2.8494,-2.8503,-2.857,-2.8595,-2.8607,-2.862,-2.8592,-2.8699,-2.8709,-2.8719,-2.8753,-2.8766,-2.8605,-2.8605,-2.8604,-2.8604,0,-2.8393,-2.8432,-2.8471,-2.8499,-2.8521,-2.8569,-2.8561,-2.8584,-2.8571,-2.857,-2.8624,-2.8634,-2.8664,-2.8679,-2.8666,-2.8744,-2.8729,-2.8702,-2.8657,-2.8737,-2.8769,-2.8782,-2.8611,-2.8609,-2.8608,-2.8607,0,0,-2.8524,-2.8544,-2.8558,-2.8571,-2.8589,-2.8618,-2.8664,-2.8694,-2.8715,-2.8734,-2.8771,-2.8818,-2.8792,-2.8808,-2.8796,-2.8829,-2.8907,-2.8797,-2.8797,-2.8818,-2.8993,-2.9015,-2.903,-2.8892,-2.8894,-2.8896,-2.8992,0,-2.862,-2.87,-2.8688,-2.8765,-2.8801,-2.877,-2.881,-2.8825,-2.8825,-2.8854,-2.8853,-2.8887,-2.8851,-2.886,-2.8891,-2.8891,-2.8942,-2.8884,-2.8926,-2.8928,-2.8923,-2.9046,-2.9069,-2.9159,-2.9004,-2.9006,-2.9008,0,-2.8743,-2.8768,-2.8849,-2.8861,-2.8875,-2.8911,-2.8938,-2.8967,-2.8982,-2.898,-2.8998,-2.8979,-2.9024,-2.8978,-2.9038,-2.8999,-2.9015,-2.9017,-2.902,-2.9024,-2.8973,-2.9054,-2.9187,-2.9201,-2.9027,-2.9025,-2.9024,0,-2.8831,-2.8885,-2.894,-2.8951,-2.8967,-2.8993,-2.9,-2.9013,-2.9032,-2.9055,-2.9067,-2.9094,-2.9109,-2.913,-2.912,-2.9087,-2.9182,-2.9135,-2.9181,-2.9181,-2.9203,-2.9202,-2.9342,-2.9213,-2.9212,-2.9212,-2.9212,0,-2.894,-2.899,-2.898,-2.9014,-2.9069,-2.9054,-2.9109,-2.9113,-2.9125,-2.9158,-2.9132,-2.9164,-2.9148,-2.9178,-2.917,-2.9221,-2.9228,-2.9226,-2.9224,-2.9229,-2.923,-2.924,-2.9234,-2.9216,-2.9215,-2.9214,-2.9214,0,-2.9048,-2.9043,-2.9101,-2.9111,-2.9115,-2.9156,-2.9163,-2.9195,-2.9192,-2.9235,-2.9244,-2.924,-2.9274,-2.9265,-2.9302,-2.9296,-2.9361,-2.935,-2.9357,-2.9354,-2.9401,-2.9397,-2.9553,-2.9572,-2.943,-2.9431,-2.9433,0,-2.9118,-2.9157,-2.9171,-2.9192,-2.9202,-2.9236,-2.9255,-2.9242,-2.9262,-2.9283,-2.9312,-2.9344,-2.9369,-2.9424,-2.9424,-2.9452,-2.9442,-2.9494,-2.9446,-2.945,-2.9443,-2.9441,-2.9445,-2.9504,-2.9506,-2.9507,-2.9508,0,-2.9243,-2.9239,-2.9268,-2.9297,-2.9321,-2.9343,-2.9362,-2.938,-2.9367,-2.9392,-2.9427,-2.9447,-2.9484,-2.9516,-2.9542,-2.9548,-2.9526,-2.9523,-2.9536,-2.9542,-2.9544,-2.9544,-2.9384,-2.952,-2.9519,-2.9518,-2.9517,-2.9517,-2.9335,-2.9368,-2.9383,-2.9417,-2.9429,-2.9448,-2.9478,-2.9479,-2.9509,-2.9539,-2.9529,-2.9569,-2.9582,-2.9614,-2.9624,-2.9654,-2.9634,-2.9652,-2.9656,-2.9661,-2.9667,-2.9539,-2.9658,-2.9658,-2.9658,-2.9658,-2.9657,0,-2.9459,-2.9467,-2.9498,-2.9526,-2.9552,-2.953,-2.9549,-2.9573,-2.9609,-2.9623,-2.9649,-2.9689,-2.9719,-2.9721,-2.975,-2.9774,-2.9764,-2.9782,-2.978,-2.9782,-2.9683,-2.967,-2.9789,-2.9789,-2.9789,-2.9789,-2.9789,-2.9789,-2.9527,-2.9581,-2.9578,-2.9638,-2.9645,-2.9685,-2.9698,-2.9715,-2.9727,-2.9773,-2.9799,-2.98,-2.9809,-2.9838,-2.9865,-2.9865,-2.9876,-2.9898,-2.9894,-2.9802,-2.9789,-2.9776,-2.9764,-2.99,-2.9901,-2.999,-2.9991,-2.9991]}]]